Regional Weather Roundup
Issued by NWS

Home | Current Version | Previous Version | Graphics & Text | Print | Product List | Glossary On
Versions: 1 2 3 4 5 6 7 8 9 10 11 12 13 14 15 16 17 18 19 20 21 22 23 24 25 26 27 28 29 30 31 32 33 34 35 36 37 38 39 40 41 42 43 44 45 46 47 48 49 50
000
ASUS43 KLSX 310010
RWRMO

WEATHER SUMMARY FOR MISSOURI
NATIONAL WEATHER SERVICE SPRINGFIELD MO
700 PM CDT SUN AUG 30 2015

NOTE: "FAIR" INDICATES FEW OR NO CLOUDS BELOW 12,000 FEET WITH NO
       SIGNIFICANT WEATHER AND/OR OBSTRUCTIONS TO VISIBILITY.
       CURRENT SKY AND/OR WEATHER CONDITIONS ARE NOT AVAILABLE FOR
       CHILLICOTHE AND FARMINGTON.

MOZ001>031-035>038-043-044-053-054-310100-
...NORTHERN AND WESTERN MISSOURI...

CITY           SKY/WX    TMP DP  RH WIND       PRES   REMARKS
KANSAS CTY INT PTCLDY    82  64  54 SE8       29.96F
6HR MIN TEMP:  79; 6HR MAX TEMP:  85;

KANSAS C DTWN  CLEAR     84  69  60 SE5       29.94F
6HR MIN TEMP:  81; 6HR MAX TEMP:  86;

LEE`S SUMMIT   CLEAR     81  70  69 E5        29.96F
6HR MIN TEMP:  79; 6HR MAX TEMP:  84;

ST JOSEPH      PTCLDY    82  69  64 E5        29.96F
6HR MIN TEMP:  80; 6HR MAX TEMP:  84;

CHILLICOTHE      N/A     83  71  67 NE3       29.98F
6HR MIN TEMP:  81; 6HR MAX TEMP:  86;

KIRKSVILLE     CLEAR     81  68  64 E3        30.00F
6HR MIN TEMP:  79; 6HR MAX TEMP:  84;


$$
MOZ066>068-077>081-088>096-101>105-310100-
...SOUTHWEST MISSOURI...

CITY           SKY/WX    TMP DP  RH WIND       PRES   REMARKS
SPRINGFIELD    CLEAR     82  69  64 SE9       29.98S
6HR MIN TEMP:  82; 6HR MAX TEMP:  85;

JOPLIN         MOCLDY    80  74  81 E7        29.95F
6HR MIN TEMP:  80; 6HR MAX TEMP:  87; 6HR PCP: TRACE;


$$
MOZ032>034-039>042-045>050-055>058-069>072-310100-
...CENTRAL MISSOURI...

CITY           SKY/WX    TMP DP  RH WIND       PRES   REMARKS
COLUMBIA       CLEAR     82  72  71 E5        29.98F
6HR MIN TEMP:  82; 6HR MAX TEMP:  86;

JEFFERSON CITY PTCLDY    83  71  67 E6        29.96S
6HR MIN TEMP:  83; 6HR MAX TEMP:  87;

ROLLA          CLEAR     80  70  71 SE3       29.99S
6HR MIN TEMP:  80; 6HR MAX TEMP:  88;

SEDALIA        PTCLDY    83  72  69 CALM      29.97F
6HR MIN TEMP:  83; 6HR MAX TEMP:  88;

WHITEMAN AFB   CLEAR     82  73  72 E5        29.95F
WARRENSBURG    CLEAR     81  70  69 CALM      29.95S
OSAGE BEACH    CLEAR     82  72  69 CALM      29.98S

$$
MOZ051-052-059>065-310100-
...EAST CENTRAL MISSOURI...

CITY           SKY/WX    TMP DP  RH WIND       PRES   REMARKS
ST LOUIS INTL  MOCLDY    84  69  60 E6        29.99S
6HR MIN TEMP:  84; 6HR MAX TEMP:  89;

SPIRIT OF STL  PTCLDY    81  75  82 CALM      29.97S
6HR MIN TEMP:  81; 6HR MAX TEMP:  88;

ST CHARLES     PTCLDY    82  71  69 E3        29.97S
6HR MIN TEMP:  82; 6HR MAX TEMP:  87;


$$
MOZ072>076-082>087-097>100-106>115-310100-
...SOUTH CENTRAL AND SOUTHEAST MISSOURI...

CITY           SKY/WX    TMP DP  RH WIND       PRES   REMARKS
CAPE GIRARDEAU PTCLDY    80  72  76 SE7       30.00S
6HR MIN TEMP:  80; 6HR MAX TEMP:  86;

FARMINGTON     MOCLDY    75  73  94 SE3       30.03F
6HR MIN TEMP:  72; 6HR MAX TEMP:  88; 6HR PCP:  2.52;

POPLAR BLUFF   PTCLDY    82  73  74 S5        29.98S
6HR MIN TEMP:  82; 6HR MAX TEMP:  87;

WEST PLAINS    CLEAR     82  70  66 CALM      30.02S
6HR MIN TEMP:  82; 6HR MAX TEMP:  85;


$$


USA.gov is the U.S. government's official web portal to all federal, state and local government web resources and services.